| time (UTC) | temp F | wind direction | speed MPH | gust MPH | rain 1hr in | rain 24hr in | rain mn in | humidity % | barometer mb |
| 20260506154531 | 55 | 90 | 0.0 | 2.0 | 0.00 | 0.00 | 0.00 | 54 | 1011.3 |
| 20260506153025 | 53 | 351 | 0.0 | 4.0 | 0.00 | 0.00 | 0.00 | 57 | 1011.3 |
| 20260506151518 | 53 | 84 | 0.0 | 1.0 | 0.00 | 0.00 | 0.00 | 60 | 1011.4 |
| 20260506150012 | 52 | 86 | 0.0 | 1.0 | 0.00 | 0.00 | 0.00 | 59 | 1011.4 |
| 20260506144511 | 51 | 96 | 0.0 | 0.0 | 0.00 | 0.00 | 0.00 | 60 | 1011.3 |
| 20260506143058 | 49 | 99 | 0.0 | 0.0 | 0.00 | 0.00 | 0.00 | 64 | 1011.3 |
| 20260506141552 | 48 | 97 | 0.0 | 0.0 | 0.00 | 0.00 | 0.00 | 65 | 1011.2 |
| 20260506140038 | 47 | 295 | 0.0 | 0.0 | 0.00 | 0.00 | 0.00 | 64 | 1011.2 |
| 20260506134530 | 47 | 295 | 0.0 | 0.0 | 0.00 | 0.00 | 0.00 | 66 | 1011.2 |
| 20260506133113 | 46 | 294 | 0.0 | 0.0 | 0.00 | 0.00 | 0.00 | 65 | 1011.1 |
| 20260506131536 | 0 | 0.0 | 0.0 | 0.00 | 0.00 | 0.00 | 1010.9 | ||
| 20260506130113 | 0 | 0.0 | 0.0 | 0.00 | 0.00 | 0.00 | 1010.8 | ||
| 20260506124525 | 0 | 0.0 | 0.0 | 0.00 | 0.00 | 0.00 | 1010.7 | ||
| 20260506123021 | 0 | 0.0 | 0.0 | 0.00 | 0.00 | 0.00 | 1010.6 | ||
| 20260506121534 | 0 | 0.0 | 0.0 | 0.00 | 0.00 | 0.00 | 1010.6 | ||
| 20260506120034 | 0 | 0.0 | 0.0 | 0.00 | 0.00 | 0.00 | 1010.6 | ||
| 20260506113055 | 48 | 294 | 0.0 | 0.0 | 0.00 | 0.00 | 0.00 | 55 | 1010.7 |
| 20260506111551 | 48 | 294 | 0.0 | 0.0 | 0.00 | 0.00 | 0.00 | 54 | 1010.7 |
| 20260506110041 | 49 | 294 | 0.0 | 0.0 | 0.00 | 0.00 | 0.00 | 53 | 1010.7 |
| 20260506104548 | 49 | 295 | 0.0 | 0.0 | 0.00 | 0.00 | 0.00 | 52 | 1010.7 |
| 20260506103035 | 50 | 295 | 0.0 | 0.0 | 0.00 | 0.00 | 0.00 | 51 | 1010.6 |
| 20260506101525 | 50 | 294 | 0.0 | 0.0 | 0.00 | 0.00 | 0.00 | 50 | 1010.5 |
| 20260506100023 | 51 | 294 | 0.0 | 0.0 | 0.00 | 0.00 | 0.00 | 49 | 1010.5 |
| 20260506094510 | 51 | 294 | 0.0 | 0.0 | 0.00 | 0.00 | 0.00 | 49 | 1010.5 |
| 20260506093057 | 52 | 294 | 0.0 | 0.0 | 0.00 | 0.00 | 0.00 | 47 | 1010.5 |
| 20260506093006 | 52 | 295 | 0.0 | 0.0 | 0.00 | 0.00 | 0.00 | 47 | 1010.5 |
| 20260506091555 | 52 | 295 | 0.0 | 0.0 | 0.00 | 0.00 | 0.00 | 46 | 1010.4 |
| 20260506090049 | 53 | 294 | 0.0 | 0.0 | 0.00 | 0.00 | 0.00 | 45 | 1010.4 |
| 20260506084545 | 54 | 294 | 0.0 | 0.0 | 0.00 | 0.00 | 0.00 | 43 | 1010.4 |
| 20260506083024 | 54 | 294 | 0.0 | 0.0 | 0.00 | 0.00 | 0.00 | 43 | 1010.4 |
| 20260506081519 | 54 | 294 | 0.0 | 0.0 | 0.00 | 0.00 | 0.00 | 43 | 1010.3 |
| 20260506073041 | 55 | 295 | 0.0 | 0.0 | 0.00 | 0.00 | 0.00 | 40 | 1010.2 |
| 20260506071546 | 57 | 294 | 0.0 | 0.0 | 0.00 | 0.00 | 0.00 | 38 | 1010.2 |
| 20260506061503 | 59 | 295 | 0.0 | 0.0 | 0.00 | 0.00 | 0.00 | 33 | 1009.5 |
| 20260506060104 | 60 | 294 | 0.0 | 0.0 | 0.00 | 0.00 | 0.00 | 31 | 1009.4 |
| 20260506044520 | 63 | 294 | 0.0 | 0.0 | 0.00 | 0.00 | 0.00 | 28 | 1009.2 |
| 20260506043010 | 64 | 294 | 0.0 | 1.0 | 0.00 | 0.00 | 0.00 | 28 | 1009.1 |
| 20260506041514 | 64 | 294 | 0.0 | 1.0 | 0.00 | 0.00 | 0.00 | 27 | 1009.0 |
| 20260506040006 | 65 | 294 | 0.0 | 1.0 | 0.00 | 0.00 | 0.00 | 27 | 1008.9 |
| 20260506034520 | 64 | 294 | 0.0 | 1.0 | 0.00 | 0.00 | 0.00 | 27 | 1008.7 |
| 20260506033005 | 65 | 294 | 0.0 | 1.0 | 0.00 | 0.00 | 0.00 | 28 | 1008.6 |
| 20260506031517 | 66 | 294 | 0.0 | 0.0 | 0.00 | 0.00 | 0.00 | 26 | 1008.4 |
| 20260506030007 | 67 | 294 | 0.0 | 1.0 | 0.00 | 0.00 | 0.00 | 26 | 1008.4 |
| 20260506024514 | 68 | 295 | 0.0 | 0.0 | 0.00 | 0.00 | 0.00 | 26 | 1008.3 |
| 20260506023021 | 68 | 299 | 0.0 | 0.0 | 0.00 | 0.00 | 0.00 | 26 | 1008.2 |
| 20260506021522 | 69 | 299 | 0.0 | 0.0 | 0.00 | 0.00 | 0.00 | 24 | 1008.2 |
| 20260506020006 | 70 | 300 | 0.0 | 1.0 | 0.00 | 0.00 | 0.00 | 24 | 1008.1 |
| 20260506014504 | 71 | 82 | 0.0 | 1.0 | 0.00 | 0.00 | 0.00 | 23 | 1008.1 |
| 20260506013038 | 72 | 317 | 0.0 | 2.0 | 0.00 | 0.00 | 0.00 | 23 | 1008.1 |
| 20260506011538 | 73 | 287 | 0.0 | 2.0 | 0.00 | 0.00 | 0.00 | 22 | 1007.9 |
| 20260506010032 | 74 | 285 | 0.0 | 2.0 | 0.00 | 0.00 | 0.00 | 23 | 1008.0 |
| 20260506004518 | 75 | 340 | 0.0 | 4.0 | 0.00 | 0.00 | 0.00 | 21 | 1008.1 |
| 20260506003012 | 76 | 299 | 0.0 | 1.0 | 0.00 | 0.00 | 0.00 | 19 | 1008.0 |
| 20260506001542 | 76 | 268 | 0.0 | 11.0 | 0.00 | 0.00 | 0.00 | 19 | 1008.1 |
| 20260506000032 | 77 | 281 | 0.0 | 5.0 | 0.00 | 0.00 | 0.00 | 21 | 1008.3 |
| 20260505234548 | 77 | 255 | 1.0 | 7.0 | 0.00 | 0.00 | 0.00 | 21 | 1008.3 |
| 20260505233030 | 77 | 287 | 2.0 | 8.0 | 0.00 | 0.00 | 0.00 | 19 | 1008.3 |
| 20260505231540 | 77 | 27 | 0.0 | 6.0 | 0.00 | 0.00 | 0.00 | 21 | 1008.6 |
| 20260505230022 | 77 | 276 | 1.0 | 8.0 | 0.00 | 0.00 | 0.00 | 19 | 1008.6 |
| 20260505224509 | 78 | 163 | 0.0 | 9.0 | 0.00 | 0.00 | 0.00 | 21 | 1008.7 |
| 20260505223053 | 77 | 221 | 2.0 | 9.0 | 0.00 | 0.00 | 0.00 | 22 | 1008.8 |
| 20260505221548 | 77 | 55 | 0.0 | 2.0 | 0.00 | 0.00 | 0.00 | 24 | 1008.7 |
| 20260505220038 | 77 | 251 | 1.0 | 9.0 | 0.00 | 0.00 | 0.00 | 22 | 1008.9 |
| 20260505214533 | 77 | 146 | 2.0 | 8.0 | 0.00 | 0.00 | 0.00 | 26 | 1009.2 |
| 20260505213017 | 77 | 294 | 1.0 | 5.0 | 0.00 | 0.00 | 0.00 | 25 | 1009.3 |
| 20260505211520 | 76 | 278 | 1.0 | 7.0 | 0.00 | 0.00 | 0.00 | 25 | 1009.5 |
| 20260505210006 | 75 | 209 | 1.0 | 9.0 | 0.00 | 0.00 | 0.00 | 27 | 1009.7 |
| 20260505204558 | 76 | 165 | 1.0 | 6.0 | 0.00 | 0.00 | 0.00 | 27 | 1009.7 |
| 20260505203048 | 75 | 339 | 0.0 | 6.0 | 0.00 | 0.00 | 0.00 | 27 | 1010.1 |
| 20260505201551 | 74 | 283 | 1.0 | 7.0 | 0.00 | 0.00 | 0.00 | 30 | 1010.0 |
| 20260505200030 | 72 | 28 | 0.0 | 5.0 | 0.00 | 0.00 | 0.00 | 29 | 1010.3 |
| 20260505194523 | 73 | 233 | 1.0 | 6.0 | 0.00 | 0.00 | 0.00 | 31 | 1010.5 |
| 20260505193010 | 73 | 183 | 0.0 | 4.0 | 0.00 | 0.00 | 0.00 | 28 | 1010.5 |
| 20260505191507 | 71 | 117 | 1.0 | 5.0 | 0.00 | 0.00 | 0.00 | 30 | 1010.7 |
| 20260505190045 | 71 | 47 | 0.0 | 5.0 | 0.00 | 0.00 | 0.00 | 34 | 1010.8 |
| 20260505184547 | 70 | 36 | 1.0 | 4.0 | 0.00 | 0.00 | 0.00 | 33 | 1010.8 |
| 20260505183035 | 69 | 80 | 1.0 | 6.0 | 0.00 | 0.00 | 0.00 | 34 | 1010.9 |
| 20260505181529 | 68 | 94 | 1.0 | 7.0 | 0.00 | 0.00 | 0.00 | 35 | 1010.9 |
| 20260505180034 | 68 | 96 | 1.0 | 7.0 | 0.00 | 0.00 | 0.00 | 41 | 1010.9 |
| 20260505174611 | 66 | 107 | 1.0 | 6.0 | 0.00 | 0.00 | 0.00 | 41 | 1010.9 |
| 20260505174504 | 66 | 105 | 1.0 | 6.0 | 0.00 | 0.00 | 0.00 | 42 | 1010.9 |
| 20260505173057 | 65 | 119 | 0.0 | 4.0 | 0.00 | 0.00 | 0.00 | 44 | 1011.0 |
| 20260505171536 | 65 | 347 | 0.0 | 2.0 | 0.00 | 0.00 | 0.00 | 44 | 1011.0 |
| 20260505170025 | 63 | 313 | 0.0 | 5.0 | 0.00 | 0.00 | 0.00 | 48 | 1011.2 |
| 20260505164518 | 61 | 105 | 0.0 | 4.0 | 0.00 | 0.00 | 0.00 | 51 | 1011.1 |
| 20260505163009 | 59 | 114 | 0.0 | 4.0 | 0.00 | 0.00 | 0.00 | 51 | 1011.2 |
| 20260505161508 | 56 | 86 | 0.0 | 4.0 | 0.00 | 0.00 | 0.00 | 61 | 1011.2 |